Regional Weather Roundup
Issued by NWS Wakefield, VA

Home | Current Version | Previous Version | Graphics & Text | Print | Product List | Glossary On
Versions: 1 2 3 4 5 6 7 8 9 10 11 12 13 14 15 16 17 18 19 20 21 22 23 24 25 26 27 28 29 30 31 32 33 34 35 36 37 38 39 40 41 42 43 44 45 46 47 48 49 50
889
ASUS41 KAKQ 182115
RWRAKQ

REGIONAL WEATHER ROUNDUP
NATIONAL WEATHER SERVICE WAKEFIELD VA
400 PM EST WED JAN 18 2017

Note: "fair" indicates few or no clouds below 12,000 feet with no
significant weather and/or obstructions to visibility. * = Denotes
station may not report precipitation (e.g., rain,snow,etc.),
thunder or fog.

VAZ042-051-052>054-056-182200-
NORTHERN VIRGINIA

CITY           SKY/WX    TMP DP  RH WIND       PRES   REMARKS
WASH NATIONAL  PTSUNNY   57  38  48 NW14G25   29.98R
DULLES         PTSUNNY   53  37  54 NW15G23   29.99R
FORT BELVOIR   PTSUNNY   56  37  47 NW16G23   29.98R
QUANTICO       PTSUNNY   57  38  48 N12G24    30.00R
FREDERICKSBRG* SUNNY     59  39  47 N12G18    29.98R
STAFFORD*      SUNNY     56  38  50 N9        30.02R
WARRENTON      MOSUNNY   58  32  37 NW12G20   29.98R
CULPEPER*      MOSUNNY   59  37  44 N6        29.99R
MANASSAS*      PTSUNNY  N/A N/A N/A NW12G23   30.00R
LEESBURG*      NOT AVBL
WINCHESTER     SUNNY     46  34  61 NW15      30.00R
FRONT ROYAL*   FAIR      54  36  50 NW5       29.99R
LURAY*         FAIR      55  37  50 W9G16     29.99R
$$

VAZ048-049-060>072-079>083-182200-
CENTRAL AND SOUTH CENTRAL VIRGINIA

CITY           SKY/WX    TMP DP  RH WIND       PRES   REMARKS
RICHMOND       MOSUNNY   61  37  41 NW12      29.96R
CHESTERFIELD*  FAIR      63  30  29 N13       29.97R
PETERSBURG*    MOSUNNY   63  34  34 NW9       29.96R
HANOVER        MOSUNNY   62  36  37 NW7       29.98R
TAPPAHANNOCK*  PTSUNNY   60  32  34 N9        29.97R
QUINTON*       FAIR      62  39  42 N12G20    29.95R
CHARLOTTSVILLE SUNNY     60  34  37 NW9       29.98R
GORDONSVILLE*  FAIR      59  35  40 NW3       29.97R
ORANGE*          N/A     59  34  38 W9        30.00R
LOUISA*        SUNNY     64  39  39 N9        29.97R
BUMPASS*       FAIR      60  35  40 NW5       29.97R
FARMVILLE*     SUNNY     62  36  38 NW3       29.97R
CREWE*         FAIR      61  36  39 NW9       29.97R
FORT PICKETT*  FAIR      61  26  26 W14G22    29.97R
CHASE CITY*    FAIR      61  32  33 NW9G16    29.99R
CLARKSVILLE*   FAIR      61  34  36 NW13G21   29.98R
SOUTH HILL*    SUNNY     61  36  39 N13G21    30.04R
LAWRENCEVILLE* FAIR      62  34  34 W7        29.97R
EMPORIA*       MOSUNNY   63  36  36 W7        29.97R
$$

VAZ088>098-182200-
SOUTHEAST VIRGINIA

CITY           SKY/WX    TMP DP  RH WIND       PRES   REMARKS
NORFOLK        MOSUNNY   51  45  79 N7        29.96R
VIRGINIA BEACH MOSUNNY   53  45  74 NW7       29.96R
NORFOLK NAVAL  MOSUNNY   52  46  80 NE9       29.98R
WEST POINT*    PTSUNNY   58  38  46 N7        29.97R
SALUDA*        CLOUDY    50  47  90 E6        29.97R
NEWPORT NEWS   SUNNY     54  47  77 E8        29.97R
LANGLEY AFB    MOSUNNY   53  46  79 E9        29.96R
FORT EUSTIS    MOSUNNY   59  46  61 E5        29.93R
WILLIAMSBURG*  SUNNY     64  46  52 CALM      29.96R
HR EXEC AP*    FAIR      55  45  67 NE10      29.95R
FRANKLIN*      MOSUNNY   60  47  63 CALM      29.95S
US460-WAKEFLD  PTSUNNY   63  44  50 N7        29.95R
$$

VAZ020-022-025-037-045-182200-
WEST CENTRAL AND SOUTHWEST VIRGINIA

CITY           SKY/WX    TMP DP  RH WIND       PRES   REMARKS
STAUNTON*      SUNNY     54  34  46 N8        30.02R
WAYNESBORO*    FAIR      55  32  42 NW9       29.99R
HOT SPRINGS VA MOSUNNY   41  30  65 W16G25    29.99R
LYNCHBURG      SUNNY     58  35  42 W7        30.00R
DANVILLE       SUNNY     62  36  37 VRB6      30.00R
SOUTH BOSTON*  FAIR      63  33  32 NW12      29.99S
MARTINSVILLE   SUNNY     60  35  39 N9        30.04F
ROANOKE        MOSUNNY   54  34  46 NW14      30.05R
BLACKSBURG     MOSUNNY   48  37  63 NW15G21   30.09R
DUBLIN*        SUNNY     50  38  62 NW10      30.08S
MARION*        SUNNY     52  37  56 SW9       30.09R
HILLSVILLE*    SUNNY     52  38  59 N7        30.03S
RICHLANDS*     FAIR     N/A N/A N/A N8        30.10R
WISE*          SUNNY     48  36  61 NW7       30.10S
ABINGDON*      SUNNY     57  40  52 NE5       30.07F
$$

MDZ021>025-VAZ099-100-182200-
SOUTHERN MARYLAND AND THE DELMARVA PENINSULA

CITY           SKY/WX    TMP DP  RH WIND       PRES   REMARKS
PATUXENT RIVER PTSUNNY   55  40  56 NW13G24   29.96R
BAY BRIDGE APT CLOUDY    50  39  66 NW9       29.97R
LEONARDTOWN    CLOUDY    55  37  50 NW8       29.98R
DOVER          CLOUDY    50  50  99 N8        29.90R
GEORGETOWN     CLOUDY    53  42  66 N10G18    29.95R
EASTON         CLOUDY    54  41  62 N7        30.00R
CAMBRIDGE      CLOUDY    52  41  66 NW9       29.96R
SALISBURY      CLOUDY    53  44  71 NW13      29.95R
OCEAN CITY     CLOUDY    51  45  79 N7        29.95R
WALLOPS ISLAND PTSUNNY   53  46  77 N7        29.95R
ACCOMACK*      MOSUNNY   52  47  82 N6        29.96R
$$

NCZ012>017-030>032-182200-
NORTH CENTRAL AND EASTERN NORTH CAROLINA

CITY           SKY/WX    TMP DP  RH WIND       PRES   REMARKS
ROANOKE RAPIDS FAIR      63  36  36 NW9G20    29.97R
RALEIGH        MOSUNNY   67  35  30 VRB5      29.98R
ELIZABETH CITY CLOUDY    55  45  68 NE8       29.96R
AHOSKIE*         N/A     60  49  67 NE6       29.96R
EDENTON*       SUNNY     58  48  68 NE10G17   29.96R
CURRITUCK*     CLOUDY    54  45  71 NE10G20   29.97R
KILL DEVIL HLS NOT AVBL
MANTEO         CLOUDY    50  45  81 NE16G24   29.95R
CAPE HATTERAS  SUNNY     54  46  74 N15G25    29.92R
TARBORO*       NOT AVBL
GOLDSBORO      SUNNY     69  35  29 N15G23    29.94R
WASHINGTON     SUNNY     67  38  34 N12G17    29.94R
GREENVILLE     SUNNY     68  36  30 N10G23    29.97R
NEW BERN       SUNNY     69  37  30 NW14G20   29.93R
WILMINGTON     MOSUNNY   71  53  52 NW12      29.92R
$$

VAZ048-182200-
ELSEWHERE

CITY           SKY/WX    TMP DP  RH WIND       PRES   REMARKS
HARRISBURG PA  CLOUDY    50  39  66 NW13      29.97R
BALTIMORE      PTSUNNY   54  40  59 NW16G22   29.96R
ANNAPOLIS      CLOUDY    54  39  57 NW10      29.96R
ANDREWS AFB    PTSUNNY   55  38  52 NW15      29.96R
PHILADELPHIA   CLOUDY    47  40  76 N8        29.97R
HENDERSON NC   SUNNY     60  33  35 W9        29.99R
GREENSBORO     MOSUNNY   65  35  33 N12G18    29.99R
ROCKY MOUNT    SUNNY     66  37  34 NW14      29.97R
$$

VAZ100-182200-
MARINE

STATION/POSITION TIME  TEMP    WIND        PRES    WAVE   SWELL
                       AIR SEA DIR/SP/G            HT/PER HT/PER
                 (UTC) (F)     (DEG/KT/KT) (MB)    (FT/S) (FT/S)
CAPE MAY NJ      2048   42 41  350/  3/  5 1013.9R
LEWES DE         2048   43 41  350/  5/  6 1014.3R
OCEAN-CITY-INLET 2048   47 43   20/  6/  8 1014.5R
WACHAPREAGUE VA  2048   53 50  340/  5/ 12 1014.2R
THOMAS POINT MD  2100   53 39  340/ 14/ 16   N/A
GOOSES REEF MD   2100   47     320/  8/ 10 1015.5    1/ 3
COVE POINT MD    2048   47     350/ 10/ 11 1015.2R
SOLOMONS ISLAND  2048   55 42  330/ 10/ 14   N/A
BISHOPS HEAD MD  2048   56 47  340/ 13/ 15 1014.6R
PINEY POINT MD   2048          360/ 13/ 15   N/A
POTOMAC MD       2100   47 41   CALM  /  2 1013.7    0
CAMBRIDGE MD     2048   50 39  330/  9/ 11 1013.7R
LEWISETTA VA     2048   50 44  130/  2/  3 1014.3R
RAPPAHANNOCK LGT 2048          360/  8/  8 1014.9R
STINGRAY PT      2050   46      40/  2/  2 1015.0R
YORK RVR RNG VA  2048   48      70/ 11/ 11 1013.9R
YORKTOWN VA      2048   49 44   90/  9/ 10 1014.3R
JAMESTOWN VA     2100   60 45  360/  6/ 10   N/A     0
DOMINION TERM VA 2048   51      90/  8/ 11 1014.7R
KIPTOPEKE VA     2048      43  320/  7/ 10   N/A
CHES BAY BRIDGE  2048   49 43  340/  6/  8 1014.6R
CAPE HENRY VA    2048   49     290/  5/  7   N/A
WILLOUBY STN VA  2048   48      50/  7/  8 1015.5R
S CRANEY ISL VA  2048   49      40/  7/  8 1014.4R
CAPE HENRY BUOY  2042      47                N/A     2/ 3
OFFSHORE WE BUOY 2021      49                N/A     3/ 4
64NM E OF VA BCH 2050   53 57  360/ 19/ 21 1012.8R   5/ 5   2/10
DUCK PIER NC     2048   48 46   10/ 13/ 16 1013.5R
44100 DUCK FRF   2035      47                N/A     4/ 4
44056 DUCK FRF   2030      45                N/A     3/ 4
OREGON INLET NC  2042   49 51  350/ 12/ 17 1013.7R
HATTERAS NC      2048   53 55  360/ 23/ 29 1012.9R
DIAMOND SHLS NC  2050   57 71   10/ 27/ 33 1012.3R   6/ 7   3/14
CAPE LOOKOUT NC  2000   62     260/ 14/ 17 1011.7R
$$




USA.gov is the U.S. government's official web portal to all federal, state and local government web resources and services.